Location: General Nathan Twining Observatory
(34.5931°N, 106.8201°W)
Time: 23:28:23
(UTC-06:00)

ADEOS II - Visible Passes

Search period start: 30 July 2016 00:00
Search period end: 09 August 2016 00:00
Orbit: 800 x 802 km, 98.3° (Epoch: 30 July)

Date Brightness Start Highest point End Pass type
(mag) Time Alt. Az. Time Alt. Az. Time Alt. Az.
30 Jul 4.4 04:30:43 10° NE 04:34:37 21° E 04:38:30 10° SE visible
31 Jul 4.9 04:06:47 10° ENE 04:08:02 11° E 04:09:17 10° ESE visible
31 Jul 2.1 05:42:57 10° N 05:48:12 72° WNW 05:53:25 10° SSW visible
01 Aug 2.6 05:16:40 10° NNE 05:21:53 63° E 05:27:04 10° S visible
02 Aug 3.6 04:50:44 10° NNE 04:55:28 34° E 05:00:11 10° SSE visible
03 Aug 4.5 04:25:21 10° NE 04:28:57 19° E 04:32:33 10° SE visible
04 Aug 2.1 05:37:20 10° N 05:42:36 81° WNW 05:47:50 10° SSW visible
05 Aug 2.8 05:11:06 10° NNE 05:16:16 55° E 05:21:24 10° S visible
06 Aug 3.8 04:45:14 10° NE 04:49:50 30° E 04:54:24 10° SSE visible
07 Aug 4.6 04:20:03 10° NE 04:23:18 16° E 04:26:33 10° SE visible
08 Aug 2.1 05:31:42 10° NNE 05:36:59 90° ENE 05:42:14 10° SSW visible
